Datum;"Wasserstand in cm";"Stationsnummer: 6032000";"Stationsname: Reitwein, �berleitung OP";"Gew?sser: Oderaltarm bei Reitwein";"Fehlwerte: -777"
"21.03.2024 00:00";328
"21.03.2024 00:15";328
"21.03.2024 00:30";328
"21.03.2024 00:45";328
"21.03.2024 01:00";328
"21.03.2024 01:15";328
"21.03.2024 01:30";328
"21.03.2024 01:45";328
"21.03.2024 02:00";328
"21.03.2024 02:15";328
"21.03.2024 02:30";328
"21.03.2024 02:45";328
"21.03.2024 03:00";328
"21.03.2024 03:15";328
"21.03.2024 03:30";328
"21.03.2024 03:45";328
"21.03.2024 04:00";327
"21.03.2024 04:15";327
"21.03.2024 04:30";327
"21.03.2024 04:45";327
"21.03.2024 05:00";327
"21.03.2024 05:15";327
"21.03.2024 05:30";327
"21.03.2024 05:45";327
"21.03.2024 06:00";327
"21.03.2024 06:15";327
"21.03.2024 06:30";327
"21.03.2024 06:45";327
"21.03.2024 07:00";327
"21.03.2024 07:15";327
"21.03.2024 07:30";327
"21.03.2024 07:45";327
"21.03.2024 08:00";327
"21.03.2024 08:15";327
"21.03.2024 08:30";327
"21.03.2024 08:45";327
"21.03.2024 09:00";327
"21.03.2024 09:15";327
"21.03.2024 09:30";327
"21.03.2024 09:45";327
"21.03.2024 10:00";327
"21.03.2024 10:15";327
"21.03.2024 10:30";327
"21.03.2024 10:45";327
"21.03.2024 11:00";327
"21.03.2024 11:15";327
"21.03.2024 11:30";327
"21.03.2024 11:45";327
"21.03.2024 12:00";327
"21.03.2024 12:15";327
"21.03.2024 12:30";327
"21.03.2024 12:45";327
"21.03.2024 13:00";327
"21.03.2024 13:15";327
"21.03.2024 13:30";327
"21.03.2024 13:45";327
"21.03.2024 14:00";327
"21.03.2024 14:15";327
"21.03.2024 14:30";327
"21.03.2024 14:45";327
"21.03.2024 15:00";327
"21.03.2024 15:15";327
"21.03.2024 15:30";327
"21.03.2024 15:45";327
"21.03.2024 16:00";327
"21.03.2024 16:15";327
"21.03.2024 16:30";327
"21.03.2024 16:45";327
"21.03.2024 17:00";327
"21.03.2024 17:15";327
"21.03.2024 17:30";327
"21.03.2024 17:45";327
"21.03.2024 18:00";327
"21.03.2024 18:15";327
"21.03.2024 18:30";327
"21.03.2024 18:45";327
"21.03.2024 19:00";327
"21.03.2024 19:15";327
"21.03.2024 19:30";327
"21.03.2024 19:45";327
"21.03.2024 20:00";327
"21.03.2024 20:15";327
"21.03.2024 20:30";326
"21.03.2024 20:45";327
"21.03.2024 21:00";327
"21.03.2024 21:15";327
"21.03.2024 21:30";327
"21.03.2024 21:45";327
"21.03.2024 22:00";327
"21.03.2024 22:15";327
"21.03.2024 22:30";327
"21.03.2024 22:45";327
"21.03.2024 23:00";327
"21.03.2024 23:15";327
"21.03.2024 23:30";327
"21.03.2024 23:45";327
"22.03.2024 00:00";327
"22.03.2024 00:15";327
"22.03.2024 00:30";327
"22.03.2024 00:45";327
"22.03.2024 01:00";327
"22.03.2024 01:15";327
"22.03.2024 01:30";327
"22.03.2024 01:45";327
"22.03.2024 02:00";327
"22.03.2024 02:15";327
"22.03.2024 02:30";327
"22.03.2024 02:45";327
"22.03.2024 03:00";327
"22.03.2024 03:15";327
"22.03.2024 03:30";327
"22.03.2024 03:45";327
"22.03.2024 04:00";327
"22.03.2024 04:15";327
"22.03.2024 04:30";327
"22.03.2024 04:45";327
"22.03.2024 05:00";327
"22.03.2024 05:15";327
"22.03.2024 05:30";327
"22.03.2024 05:45";327
"22.03.2024 06:00";327
"22.03.2024 06:15";327
"22.03.2024 06:30";327
"22.03.2024 06:45";327
"22.03.2024 07:00";327
"22.03.2024 07:15";327
"22.03.2024 07:30";327
"22.03.2024 07:45";327
"22.03.2024 08:00";327
"22.03.2024 08:15";327
"22.03.2024 08:30";327
"22.03.2024 08:45";327
"22.03.2024 09:00";327
"22.03.2024 09:15";327
"22.03.2024 09:30";327
"22.03.2024 09:45";327
"22.03.2024 10:00";327
"22.03.2024 10:15";327
"22.03.2024 10:30";327
"22.03.2024 10:45";327
"22.03.2024 11:00";327
"22.03.2024 11:15";327
"22.03.2024 11:30";327
"22.03.2024 11:45";327
"22.03.2024 12:00";327
"22.03.2024 12:15";327
"22.03.2024 12:30";327
"22.03.2024 12:45";327
"22.03.2024 13:00";327
"22.03.2024 13:15";327
"22.03.2024 13:30";327
"22.03.2024 13:45";327
"22.03.2024 14:00";327
"22.03.2024 14:15";327
"22.03.2024 14:30";328
"22.03.2024 14:45";328
"22.03.2024 15:00";328
"22.03.2024 15:15";328
"22.03.2024 15:30";328
"22.03.2024 15:45";328
"22.03.2024 16:00";328
"22.03.2024 16:15";328
"22.03.2024 16:30";328
"22.03.2024 16:45";328
"22.03.2024 17:00";328
"22.03.2024 17:15";328
"22.03.2024 17:30";328
"22.03.2024 17:45";328
"22.03.2024 18:00";328
"22.03.2024 18:15";329
"22.03.2024 18:30";329
"22.03.2024 18:45";329
"22.03.2024 19:00";329
"22.03.2024 19:15";329
"22.03.2024 19:30";329
"22.03.2024 19:45";329
"22.03.2024 20:00";329
"22.03.2024 20:15";330
"22.03.2024 20:30";330
"22.03.2024 20:45";330
"22.03.2024 21:00";330
"22.03.2024 21:15";330
"22.03.2024 21:30";330
"22.03.2024 21:45";330
"22.03.2024 22:00";330
"22.03.2024 22:15";330
"22.03.2024 22:30";330
"22.03.2024 22:45";330
"22.03.2024 23:00";330
"22.03.2024 23:15";330
"22.03.2024 23:30";331
"22.03.2024 23:45";331
"23.03.2024 00:00";331
"23.03.2024 00:15";331
"23.03.2024 00:30";331
"23.03.2024 00:45";331
"23.03.2024 01:00";331
"23.03.2024 01:15";331
"23.03.2024 01:30";331
"23.03.2024 01:45";331
"23.03.2024 02:00";331
"23.03.2024 02:15";331
"23.03.2024 02:30";331
"23.03.2024 02:45";331
"23.03.2024 03:00";331
"23.03.2024 03:15";331
"23.03.2024 03:30";331
"23.03.2024 03:45";331
"23.03.2024 04:00";331
"23.03.2024 04:15";331
"23.03.2024 04:30";331
"23.03.2024 04:45";332
"23.03.2024 05:00";332
"23.03.2024 05:15";332
"23.03.2024 05:30";332
"23.03.2024 05:45";332
"23.03.2024 06:00";332
"23.03.2024 06:15";332
"23.03.2024 06:30";332
"23.03.2024 06:45";332
"23.03.2024 07:00";332
"23.03.2024 07:15";332
"23.03.2024 07:30";332
"23.03.2024 07:45";332
"23.03.2024 08:00";332
"23.03.2024 08:15";332
"23.03.2024 08:30";332
"23.03.2024 08:45";332
"23.03.2024 09:00";332
"23.03.2024 09:15";332
"23.03.2024 09:30";332
"23.03.2024 09:45";332
"23.03.2024 10:00";332
"23.03.2024 10:15";332
"23.03.2024 10:30";332
"23.03.2024 10:45";332
"23.03.2024 11:00";332
"23.03.2024 11:15";332
"23.03.2024 11:30";332
"23.03.2024 11:45";332
"23.03.2024 12:00";332
"23.03.2024 12:15";332
"23.03.2024 12:30";332
"23.03.2024 12:45";332
"23.03.2024 13:00";332
"23.03.2024 13:15";332
"23.03.2024 13:30";332
"23.03.2024 13:45";332
"23.03.2024 14:00";332
"23.03.2024 14:15";332
"23.03.2024 14:30";332
"23.03.2024 14:45";332
"23.03.2024 15:00";332
"23.03.2024 15:15";332
"23.03.2024 15:30";332
"23.03.2024 15:45";331
"23.03.2024 16:00";331
"23.03.2024 16:15";331
"23.03.2024 16:30";331
"23.03.2024 16:45";331
"23.03.2024 17:00";331
"23.03.2024 17:15";331
"23.03.2024 17:30";331
"23.03.2024 17:45";330
"23.03.2024 18:00";330
"23.03.2024 18:15";330
"23.03.2024 18:30";330
"23.03.2024 18:45";330
"23.03.2024 19:00";330
"23.03.2024 19:15";330
"23.03.2024 19:30";330
"23.03.2024 19:45";330
"23.03.2024 20:00";330
"23.03.2024 20:15";329
"23.03.2024 20:30";329
"23.03.2024 20:45";329
"23.03.2024 21:00";329
"23.03.2024 21:15";329
"23.03.2024 21:30";329
"23.03.2024 21:45";329
"23.03.2024 22:00";329
"23.03.2024 22:15";329
"23.03.2024 22:30";329
"23.03.2024 22:45";329
"23.03.2024 23:00";329
"23.03.2024 23:15";329
"23.03.2024 23:30";329
"23.03.2024 23:45";328
"24.03.2024 00:00";328
"24.03.2024 00:15";328
"24.03.2024 00:30";328
"24.03.2024 00:45";328
"24.03.2024 01:00";328
"24.03.2024 01:15";328
"24.03.2024 01:30";328
"24.03.2024 01:45";328
"24.03.2024 02:00";328
"24.03.2024 02:15";328
"24.03.2024 02:30";328
"24.03.2024 02:45";328
"24.03.2024 03:00";328
"24.03.2024 03:15";328
"24.03.2024 03:30";328
"24.03.2024 03:45";328
"24.03.2024 04:00";328
"24.03.2024 04:15";328
"24.03.2024 04:30";328
"24.03.2024 04:45";328
"24.03.2024 05:00";328
"24.03.2024 05:15";328
"24.03.2024 05:30";328
"24.03.2024 05:45";328
"24.03.2024 06:00";328
"24.03.2024 06:15";328
"24.03.2024 06:30";328
"24.03.2024 06:45";327
"24.03.2024 07:00";327
"24.03.2024 07:15";327
"24.03.2024 07:30";327
"24.03.2024 07:45";327
"24.03.2024 08:00";327
"24.03.2024 08:15";327
"24.03.2024 08:30";327
"24.03.2024 08:45";327
"24.03.2024 09:00";327
"24.03.2024 09:15";327
"24.03.2024 09:30";327
"24.03.2024 09:45";327
"24.03.2024 10:00";327
"24.03.2024 10:15";327
"24.03.2024 10:30";327
"24.03.2024 10:45";327
"24.03.2024 11:00";326
"24.03.2024 11:15";326
"24.03.2024 11:30";326
"24.03.2024 11:45";326
"24.03.2024 12:00";326
"24.03.2024 12:15";326
"24.03.2024 12:30";326
"24.03.2024 12:45";326
"24.03.2024 13:00";326
"24.03.2024 13:15";326
"24.03.2024 13:30";326
"24.03.2024 13:45";326
"24.03.2024 14:00";326
"24.03.2024 14:15";326
"24.03.2024 14:30";326
"24.03.2024 14:45";326
"24.03.2024 15:00";326
"24.03.2024 15:15";325
"24.03.2024 15:30";326
"24.03.2024 15:45";325
"24.03.2024 16:00";325
"24.03.2024 16:15";325
"24.03.2024 16:30";325
"24.03.2024 16:45";325
"24.03.2024 17:00";325
"24.03.2024 17:15";325
"24.03.2024 17:30";325
"24.03.2024 17:45";325
"24.03.2024 18:00";325
"24.03.2024 18:15";325
"24.03.2024 18:30";325
"24.03.2024 18:45";325
"24.03.2024 19:00";325
"24.03.2024 19:15";324
"24.03.2024 19:30";324
"24.03.2024 19:45";324
"24.03.2024 20:00";324
"24.03.2024 20:15";324
"24.03.2024 20:30";324
"24.03.2024 20:45";324
"24.03.2024 21:00";324
"24.03.2024 21:15";324
"24.03.2024 21:30";324
"24.03.2024 21:45";324
"24.03.2024 22:00";324
"24.03.2024 22:15";324
"24.03.2024 22:30";324
"24.03.2024 22:45";324
"24.03.2024 23:00";324
"24.03.2024 23:15";324
"24.03.2024 23:30";324
"24.03.2024 23:45";324
"25.03.2024 00:00";324
"25.03.2024 00:15";324
"25.03.2024 00:30";324
"25.03.2024 00:45";324
"25.03.2024 01:00";324
"25.03.2024 01:15";324
"25.03.2024 01:30";324
"25.03.2024 01:45";324
"25.03.2024 02:00";324
"25.03.2024 02:15";324
"25.03.2024 02:30";324
"25.03.2024 02:45";324
"25.03.2024 03:00";324
"25.03.2024 03:15";324
"25.03.2024 03:30";324
"25.03.2024 03:45";324
"25.03.2024 04:00";324
"25.03.2024 04:15";324
"25.03.2024 04:30";324
"25.03.2024 04:45";324
"25.03.2024 05:00";324
"25.03.2024 05:15";324
"25.03.2024 05:30";324
"25.03.2024 05:45";324
"25.03.2024 06:00";324
"25.03.2024 06:15";324
"25.03.2024 06:30";324
"25.03.2024 06:45";324
"25.03.2024 07:00";324
"25.03.2024 07:15";324
"25.03.2024 07:30";324
"25.03.2024 07:45";324
"25.03.2024 08:00";324
"25.03.2024 08:15";324
"25.03.2024 08:30";324
"25.03.2024 08:45";324
"25.03.2024 09:00";324
"25.03.2024 09:15";324
"25.03.2024 09:30";324
"25.03.2024 09:45";324
"25.03.2024 10:00";324
"25.03.2024 10:15";324
"25.03.2024 10:30";324
"25.03.2024 10:45";324
"25.03.2024 11:00";324
"25.03.2024 11:15";324
"25.03.2024 11:30";324
"25.03.2024 11:45";324
"25.03.2024 12:00";324
"25.03.2024 12:15";324
"25.03.2024 12:30";324
"25.03.2024 12:45";324
"25.03.2024 13:00";324
"25.03.2024 13:15";324
"25.03.2024 13:30";324
"25.03.2024 13:45";324
"25.03.2024 14:00";324
"25.03.2024 14:15";324
"25.03.2024 14:30";324
"25.03.2024 14:45";324
"25.03.2024 15:00";324
"25.03.2024 15:15";324
"25.03.2024 15:30";324
"25.03.2024 15:45";324
"25.03.2024 16:00";324
"25.03.2024 16:15";324
"25.03.2024 16:30";324
"25.03.2024 16:45";324
"25.03.2024 17:00";324
"25.03.2024 17:15";324
"25.03.2024 17:30";324
"25.03.2024 17:45";324
"25.03.2024 18:00";324
"25.03.2024 18:15";324
"25.03.2024 18:30";324
"25.03.2024 18:45";323
"25.03.2024 19:00";323
"25.03.2024 19:15";323
"25.03.2024 19:30";323
"25.03.2024 19:45";323
"25.03.2024 20:00";323
"25.03.2024 20:15";323
"25.03.2024 20:30";325
"25.03.2024 20:45";323
"25.03.2024 21:00";323
"25.03.2024 21:15";323
"25.03.2024 21:30";323
"25.03.2024 21:45";323
"25.03.2024 22:00";323
"25.03.2024 22:15";323
"25.03.2024 22:30";323
"25.03.2024 22:45";323
"25.03.2024 23:00";323
"25.03.2024 23:15";323
"25.03.2024 23:30";323
"25.03.2024 23:45";323
"26.03.2024 00:00";323
"26.03.2024 00:15";323
"26.03.2024 00:30";323
"26.03.2024 00:45";323
"26.03.2024 01:00";323
"26.03.2024 01:15";323
"26.03.2024 01:30";323
"26.03.2024 01:45";323
"26.03.2024 02:00";323
"26.03.2024 02:15";323
"26.03.2024 02:30";323
"26.03.2024 02:45";323
"26.03.2024 03:00";323
"26.03.2024 03:15";323
"26.03.2024 03:30";322
"26.03.2024 03:45";323
"26.03.2024 04:00";323
"26.03.2024 04:15";322
"26.03.2024 04:30";322
"26.03.2024 04:45";322
"26.03.2024 05:00";322
"26.03.2024 05:15";322
"26.03.2024 05:30";322
"26.03.2024 05:45";322
"26.03.2024 06:00";322
"26.03.2024 06:15";322
"26.03.2024 06:30";322
"26.03.2024 06:45";322
"26.03.2024 07:00";322
"26.03.2024 07:15";322
"26.03.2024 07:30";322
"26.03.2024 07:45";322
"26.03.2024 08:00";322
"26.03.2024 08:15";322
"26.03.2024 08:30";321
"26.03.2024 08:45";321
"26.03.2024 09:00";321
"26.03.2024 09:15";321
"26.03.2024 09:30";321
"26.03.2024 09:45";321
"26.03.2024 10:00";321
"26.03.2024 10:15";321
"26.03.2024 10:30";321
"26.03.2024 10:45";321
"26.03.2024 11:00";321
"26.03.2024 11:15";320
"26.03.2024 11:30";321
"26.03.2024 11:45";320
"26.03.2024 12:00";320
"26.03.2024 12:15";320
"26.03.2024 12:30";320
"26.03.2024 12:45";320
"26.03.2024 13:00";320
"26.03.2024 13:15";320
"26.03.2024 13:30";320
"26.03.2024 13:45";320
"26.03.2024 14:00";320
"26.03.2024 14:15";320
"26.03.2024 14:30";320
"26.03.2024 14:45";319
"26.03.2024 15:00";319
"26.03.2024 15:15";319
"26.03.2024 15:30";319
"26.03.2024 15:45";319
"26.03.2024 16:00";319
"26.03.2024 16:15";319
"26.03.2024 16:30";319
"26.03.2024 16:45";319
"26.03.2024 17:00";319
"26.03.2024 17:15";319
"26.03.2024 17:30";319
"26.03.2024 17:45";319
"26.03.2024 18:00";318
"26.03.2024 18:15";318
"26.03.2024 18:30";318
"26.03.2024 18:45";318
"26.03.2024 19:00";318
"26.03.2024 19:15";318
"26.03.2024 19:30";318
"26.03.2024 19:45";318
"26.03.2024 20:00";318
"26.03.2024 20:15";318
"26.03.2024 20:30";318
"26.03.2024 20:45";318
"26.03.2024 21:00";318
"26.03.2024 21:15";318
"26.03.2024 21:30";318
"26.03.2024 21:45";318
"26.03.2024 22:00";318
"26.03.2024 22:15";318
"26.03.2024 22:30";318
"26.03.2024 22:45";317
"26.03.2024 23:00";317
"26.03.2024 23:15";317
"26.03.2024 23:30";317
"26.03.2024 23:45";317
"27.03.2024 00:00";317
"27.03.2024 00:15";317
"27.03.2024 00:30";317
"27.03.2024 00:45";317
"27.03.2024 01:00";317
"27.03.2024 01:15";317
"27.03.2024 01:30";317
"27.03.2024 01:45";317
"27.03.2024 02:00";317
"27.03.2024 02:15";317
"27.03.2024 02:30";317
"27.03.2024 02:45";317
"27.03.2024 03:00";317
"27.03.2024 03:15";317
"27.03.2024 03:30";317
"27.03.2024 03:45";317
"27.03.2024 04:00";317
"27.03.2024 04:15";317
"27.03.2024 04:30";317
"27.03.2024 04:45";317
"27.03.2024 05:00";317
"27.03.2024 05:15";317
"27.03.2024 05:30";317
"27.03.2024 05:45";317
"27.03.2024 06:00";317
"27.03.2024 06:15";317
"27.03.2024 06:30";319
"27.03.2024 06:45";317
"27.03.2024 07:00";317
"27.03.2024 07:15";317
"27.03.2024 07:30";317
"27.03.2024 07:45";317
"27.03.2024 08:00";317
"27.03.2024 08:15";317
"27.03.2024 08:30";317
"27.03.2024 08:45";317
"27.03.2024 09:00";317
"27.03.2024 09:15";317
"27.03.2024 09:30";317
"27.03.2024 09:45";317
"27.03.2024 10:00";317
"27.03.2024 10:15";317
"27.03.2024 10:30";317
"27.03.2024 10:45";316
"27.03.2024 11:00";317
"27.03.2024 11:15";317
"27.03.2024 11:30";316
"27.03.2024 11:45";316
"27.03.2024 12:00";316
"27.03.2024 12:15";316
"27.03.2024 12:30";316
"27.03.2024 12:45";316
"27.03.2024 13:00";316
"27.03.2024 13:15";316
"27.03.2024 13:30";316
"27.03.2024 13:45";316
"27.03.2024 14:00";317
"27.03.2024 14:15";316
"27.03.2024 14:30";316
"27.03.2024 14:45";316
"27.03.2024 15:00";316
"27.03.2024 15:15";316
"27.03.2024 15:30";316
"27.03.2024 15:45";316
"27.03.2024 16:00";316
"27.03.2024 16:15";316
"27.03.2024 16:30";316
"27.03.2024 16:45";316
"27.03.2024 17:00";316
"27.03.2024 17:15";316
"27.03.2024 17:30";316
"27.03.2024 17:45";316
"27.03.2024 18:00";316
"27.03.2024 18:15";316
"27.03.2024 18:30";316
"27.03.2024 18:45";316
"27.03.2024 19:00";316
"27.03.2024 19:15";316
"27.03.2024 19:30";316
"27.03.2024 19:45";316
"27.03.2024 20:00";316
"27.03.2024 20:15";316
"27.03.2024 20:30";316
"27.03.2024 20:45";316
"27.03.2024 21:00";316
"27.03.2024 21:15";316
"27.03.2024 21:30";316
"27.03.2024 21:45";316
"27.03.2024 22:00";316
"27.03.2024 22:15";316
"27.03.2024 22:30";316
"27.03.2024 22:45";316
"27.03.2024 23:00";316
"27.03.2024 23:15";316
"27.03.2024 23:30";316
"27.03.2024 23:45";316
"28.03.2024 00:00";316
"28.03.2024 00:15";316
"28.03.2024 00:30";316
"28.03.2024 00:45";316
"28.03.2024 01:00";316
"28.03.2024 01:15";316
"28.03.2024 01:30";316
"28.03.2024 01:45";316
"28.03.2024 02:00";316
"28.03.2024 02:15";316
"28.03.2024 02:30";316
"28.03.2024 02:45";316
"28.03.2024 03:00";316
"28.03.2024 03:15";316
"28.03.2024 03:30";316
"28.03.2024 03:45";316
"28.03.2024 04:00";316
"28.03.2024 04:15";316
"28.03.2024 04:30";316
"28.03.2024 04:45";316
"28.03.2024 05:00";316
"28.03.2024 05:15";316
"28.03.2024 05:30";316
"28.03.2024 05:45";316
"28.03.2024 06:00";316
"28.03.2024 06:15";316
"28.03.2024 06:30";316
"28.03.2024 06:45";316
"28.03.2024 07:00";316
"28.03.2024 07:15";316
"28.03.2024 07:30";316
"28.03.2024 07:45";316
"28.03.2024 08:00";316
"28.03.2024 08:15";316
"28.03.2024 08:30";316
"28.03.2024 08:45";316
"28.03.2024 09:00";316
"28.03.2024 09:15";316
"28.03.2024 09:30";316
"28.03.2024 09:45";316
"28.03.2024 10:00";316
"28.03.2024 10:15";316
"28.03.2024 10:30";316
"28.03.2024 10:45";316
"28.03.2024 11:00";316
"28.03.2024 11:15";315
"28.03.2024 11:30";315
"28.03.2024 11:45";315
"28.03.2024 12:00";315
"28.03.2024 12:15";315
"28.03.2024 12:30";315
"28.03.2024 12:45";315
"28.03.2024 13:00";315
"28.03.2024 13:15";315
"28.03.2024 13:30";315
"28.03.2024 13:45";315
"28.03.2024 14:00";315
"28.03.2024 14:15";315
"28.03.2024 14:30";314
"28.03.2024 14:45";314
"28.03.2024 15:00";314
"28.03.2024 15:15";314
"28.03.2024 15:30";314
"28.03.2024 15:45";314
"28.03.2024 16:00";314
"28.03.2024 16:15";314
"28.03.2024 16:30";314
"28.03.2024 16:45";314
"28.03.2024 17:00";314
"28.03.2024 17:15";314
"28.03.2024 17:30";314
"28.03.2024 17:45";314
"28.03.2024 18:00";314
"28.03.2024 18:15";314
"28.03.2024 18:30";314
"28.03.2024 18:45";314
"28.03.2024 19:00";314
"28.03.2024 19:15";314
"28.03.2024 19:30";314
"28.03.2024 19:45";314
"28.03.2024 20:00";314
"28.03.2024 20:15";314
"28.03.2024 20:30";316
"28.03.2024 20:45";314
"28.03.2024 21:00";314
"28.03.2024 21:15";314
"28.03.2024 21:30";314
"28.03.2024 21:45";314
"28.03.2024 22:00";314
"28.03.2024 22:15";314
"28.03.2024 22:30";314
"28.03.2024 22:45";314
"28.03.2024 23:00";314
"28.03.2024 23:15";314
"28.03.2024 23:30";314
"28.03.2024 23:45";315
"29.03.2024 00:00";315
"29.03.2024 00:15";316
"29.03.2024 00:30";316
"29.03.2024 00:45";316
"29.03.2024 01:00";316
"29.03.2024 01:15";316
"29.03.2024 01:30";316
"29.03.2024 01:45";316
"29.03.2024 02:00";316
"29.03.2024 02:15";316
"29.03.2024 02:30";316
"29.03.2024 02:45";316
"29.03.2024 03:00";317
"29.03.2024 03:15";317
"29.03.2024 03:30";317
"29.03.2024 03:45";317
"29.03.2024 04:00";317
"29.03.2024 04:15";317
"29.03.2024 04:30";317
"29.03.2024 04:45";317
"29.03.2024 05:00";317
"29.03.2024 05:15";317
"29.03.2024 05:30";317
"29.03.2024 05:45";317
"29.03.2024 06:00";317
"29.03.2024 06:15";317
"29.03.2024 06:30";317
"29.03.2024 06:45";317
"29.03.2024 07:00";317
"29.03.2024 07:15";317
"29.03.2024 07:30";317
"29.03.2024 07:45";317
"29.03.2024 08:00";317
"29.03.2024 08:15";317
"29.03.2024 08:30";317
"29.03.2024 08:45";317
"29.03.2024 09:00";317
"29.03.2024 09:15";318
"29.03.2024 09:30";317
"29.03.2024 09:45";317
"29.03.2024 10:00";317
"29.03.2024 10:15";317
"29.03.2024 10:30";317
"29.03.2024 10:45";317
"29.03.2024 11:00";317
"29.03.2024 11:15";317
"29.03.2024 11:30";317
"29.03.2024 11:45";317
"29.03.2024 12:00";317
"29.03.2024 12:15";317
"29.03.2024 12:30";317
"29.03.2024 12:45";317
"29.03.2024 13:00";317
"29.03.2024 13:15";317
"29.03.2024 13:30";317
"29.03.2024 13:45";317
"29.03.2024 14:00";317
"29.03.2024 14:15";317
"29.03.2024 14:30";317
"29.03.2024 14:45";317
"29.03.2024 15:00";317
"29.03.2024 15:15";317
"29.03.2024 15:30";317
"29.03.2024 15:45";317
"29.03.2024 16:00";317
"29.03.2024 16:15";317
"29.03.2024 16:30";317
"29.03.2024 16:45";317
"29.03.2024 17:00";317
"29.03.2024 17:15";317
"29.03.2024 17:30";316
"29.03.2024 17:45";317
"29.03.2024 18:00";317
"29.03.2024 18:15";316
"29.03.2024 18:30";316
"29.03.2024 18:45";316
"29.03.2024 19:00";317
"29.03.2024 19:15";316
"29.03.2024 19:30";316
"29.03.2024 19:45";316
"29.03.2024 20:00";316
"29.03.2024 20:15";316
"29.03.2024 20:30";316
"29.03.2024 20:45";316
"29.03.2024 21:00";316
"29.03.2024 21:15";317
"29.03.2024 21:30";316
"29.03.2024 21:45";316
"29.03.2024 22:00";316
"29.03.2024 22:15";316
"29.03.2024 22:30";316
"29.03.2024 22:45";316
"29.03.2024 23:00";316
"29.03.2024 23:15";316
"29.03.2024 23:30";316
"29.03.2024 23:45";316
"30.03.2024 00:00";316
"30.03.2024 00:15";316
"30.03.2024 00:30";316
"30.03.2024 00:45";316
"30.03.2024 01:00";316
"30.03.2024 01:15";316
"30.03.2024 01:30";316
"30.03.2024 01:45";316
"30.03.2024 02:00";316
"30.03.2024 02:15";316
"30.03.2024 02:30";316
"30.03.2024 02:45";316
"30.03.2024 03:00";316
"30.03.2024 03:15";316
"30.03.2024 03:30";316
"30.03.2024 03:45";316
"30.03.2024 04:00";316
"30.03.2024 04:15";316
"30.03.2024 04:30";316
"30.03.2024 04:45";316
"30.03.2024 05:00";316
"30.03.2024 05:15";316
"30.03.2024 05:30";316
"30.03.2024 05:45";316
"30.03.2024 06:00";316
"30.03.2024 06:15";316
"30.03.2024 06:30";316
"30.03.2024 06:45";316
"30.03.2024 07:00";316
"30.03.2024 07:15";316
"30.03.2024 07:30";316
"30.03.2024 07:45";316
"30.03.2024 08:00";316
"30.03.2024 08:15";316
"30.03.2024 08:30";316
"30.03.2024 08:45";316
"30.03.2024 09:00";316
"30.03.2024 09:15";316
"30.03.2024 09:30";316
"30.03.2024 09:45";316
"30.03.2024 10:00";315
"30.03.2024 10:15";315
"30.03.2024 10:30";315
"30.03.2024 10:45";315
"30.03.2024 11:00";315
"30.03.2024 11:15";315
"30.03.2024 11:30";315
"30.03.2024 11:45";315
"30.03.2024 12:00";315
"30.03.2024 12:15";315
"30.03.2024 12:30";315
"30.03.2024 12:45";314
"30.03.2024 13:00";314
"30.03.2024 13:15";314
"30.03.2024 13:30";314
"30.03.2024 13:45";314
"30.03.2024 14:00";314
"30.03.2024 14:15";314
"30.03.2024 14:30";314
"30.03.2024 14:45";314
"30.03.2024 15:00";314
"30.03.2024 15:15";314
"30.03.2024 15:30";314
"30.03.2024 15:45";314
"30.03.2024 16:00";313
"30.03.2024 16:15";313
"30.03.2024 16:30";313
"30.03.2024 16:45";313
"30.03.2024 17:00";313
"30.03.2024 17:15";313
"30.03.2024 17:30";313
"30.03.2024 17:45";313
"30.03.2024 18:00";313
"30.03.2024 18:15";313
"30.03.2024 18:30";313
"30.03.2024 18:45";313
"30.03.2024 19:00";313
"30.03.2024 19:15";313
"30.03.2024 19:30";312
"30.03.2024 19:45";312
"30.03.2024 20:00";312
"30.03.2024 20:15";312
"30.03.2024 20:30";312
"30.03.2024 20:45";312
"30.03.2024 21:00";312
"30.03.2024 21:15";312
"30.03.2024 21:30";312
"30.03.2024 21:45";312
"30.03.2024 22:00";312
"30.03.2024 22:15";311
"30.03.2024 22:30";311
"30.03.2024 22:45";311
"30.03.2024 23:00";311
"30.03.2024 23:15";311
"30.03.2024 23:30";311
"30.03.2024 23:45";311
"31.03.2024 00:00";311
"31.03.2024 00:15";311
"31.03.2024 00:30";311
"31.03.2024 00:45";311
"31.03.2024 01:00";311
"31.03.2024 01:15";311
"31.03.2024 01:30";311
"31.03.2024 01:45";311
"31.03.2024 02:00";311
"31.03.2024 02:15";311
"31.03.2024 02:30";311
"31.03.2024 02:45";311
"31.03.2024 03:00";311
"31.03.2024 03:15";310
"31.03.2024 03:30";310
"31.03.2024 03:45";310
"31.03.2024 04:00";310
"31.03.2024 04:15";310
"31.03.2024 04:30";310
"31.03.2024 04:45";310
"31.03.2024 05:00";310
"31.03.2024 05:15";310
"31.03.2024 05:30";310
"31.03.2024 05:45";310
"31.03.2024 06:00";310
"31.03.2024 06:15";310
"31.03.2024 06:30";310
"31.03.2024 06:45";310
"31.03.2024 07:00";310
"31.03.2024 07:15";310
"31.03.2024 07:30";310
"31.03.2024 07:45";310
"31.03.2024 08:00";310
"31.03.2024 08:15";310
"31.03.2024 08:30";310
"31.03.2024 08:45";310
"31.03.2024 09:00";309
"31.03.2024 09:15";309
"31.03.2024 09:30";310
"31.03.2024 09:45";310
"31.03.2024 10:00";310
"31.03.2024 10:15";310
"31.03.2024 10:30";310
"31.03.2024 10:45";310
"31.03.2024 11:00";309
"31.03.2024 11:15";310
"31.03.2024 11:30";310
"31.03.2024 11:45";310
"31.03.2024 12:00";309
"31.03.2024 12:15";309
"31.03.2024 12:30";309
"31.03.2024 12:45";309
"31.03.2024 13:00";309
"31.03.2024 13:15";309
"31.03.2024 13:30";309
"31.03.2024 13:45";309
"31.03.2024 14:00";309
"31.03.2024 14:15";309
"31.03.2024 14:30";309
"31.03.2024 14:45";309
"31.03.2024 15:00";309
"31.03.2024 15:15";309
"31.03.2024 15:30";309
"31.03.2024 15:45";309
"31.03.2024 16:00";309
"31.03.2024 16:15";309
"31.03.2024 16:30";309
"31.03.2024 16:45";309
"31.03.2024 17:00";309
"31.03.2024 17:15";309
"31.03.2024 17:30";309
"31.03.2024 17:45";309
"31.03.2024 18:00";309
"31.03.2024 18:15";310
"31.03.2024 18:30";310
"31.03.2024 18:45";310
"31.03.2024 19:00";310